Regional Weather Roundup
Issued by NWS

Home | Current Version | Previous Version | Text Only | Print | Product List | Glossary Off
Versions: 1 2 3 4 5 6 7 8 9 10 11 12 13 14 15 16 17 18 19 20 21 22 23 24 25 26 27 28 29 30 31 32 33 34 35 36 37 38 39 40 41 42 43 44 45 46 47 48 49 50

000
ASUS43 KOAX 162110
RWRNE

WEATHER ROUNDUP FOR NEBRASKA
NATIONAL WEATHER SERVICE OMAHA NE
400 PM CDT MON OCT 16 2017

NOTES: SATELLITE DATA IS BEING USED TO AUGMENT CLOUD COVER ABOVE
       12000 FEET.
       "FAIR" INDICATES FEW OR NO CLOUDS BELOW 12,000 FEET WITH NO
       SIGNIFICANT WEATHER AND/OR OBSTRUCTIONS TO VISIBILITY.


NEZ001>004-019>022-054>056-162200-
NEBRASKA PANHANDLE

CITY           SKY/WX    TMP DP  RH WIND       PRES   REMARKS
SCOTTSBLUFF    SUNNY     76  19  11 W13       30.12F
ALLIANCE       SUNNY     72  20  14 W12       30.10F
CHADRON        SUNNY     73  22  14 NW15      30.08F
GORDON         FAIR      74  22  14 NW13      30.07F
KIMBALL        CLOUDY    76  14   9 NW16G25   30.18S
SIDNEY         SUNNY     78  11   8 NW16G26   30.14F
$$

NEZ057>060-069>072-079>082-162200-
SOUTHWEST NEBRASKA

CITY           SKY/WX    TMP DP  RH WIND       PRES   REMARKS
NORTH PLATTE   SUNNY     77  32  19 SW17G25   30.07F
IMPERIAL       SUNNY     78  17  10 W9        30.10F
LEXINGTON      SUNNY     78  32  18 SW18G26   30.09F
MCCOOK         MOSUNNY   80  31  16 SW24G31   30.09F HAZE
OGALLALA       CLOUDY    80  26  14 W7        30.09F
$$

NEZ005>010-023>029-035>040-094-162200-
NORTH CENTRAL NEBRASKA

CITY           SKY/WX    TMP DP  RH WIND       PRES   REMARKS
VALENTINE      SUNNY     80  23  12 W12G20    30.03F
AINSWORTH      SUNNY     77  30  17 W9        30.04S
BROKEN BOW     SUNNY     75  38  26 S15       30.08F
O`NEILL        SUNNY     77  37  23 SW16G23   30.04F
ORD            SUNNY     74  32  21 SW17G26   30.06F
THEDFORD       SUNNY     78  29  16 W8G17     30.07S
$$

NEZ041-046>049-061>064-073>077-083>087-162200-
SOUTH CENTRAL NEBRASKA

CITY           SKY/WX    TMP DP  RH WIND       PRES   REMARKS
GRAND ISLAND   SUNNY     72  33  24 SW20G30   30.12F
AURORA         SUNNY     74  34  23 SW21G26   30.12F
HASTINGS       SUNNY     73  32  22 SW16G24   30.14F
HEBRON         SUNNY     75  32  21 SW17G23   30.17F
HOLDREGE       SUNNY     76  37  24 S20G29    30.11
KEARNEY        SUNNY     75  36  24 S22G30    30.11F
YORK           SUNNY     73  36  25 SW14G25   30.14F
$$

NEZ011>018-030>034-042>045-162200-
NORTHEAST NEBRASKA

CITY           SKY/WX    TMP DP  RH WIND       PRES   REMARKS
NORFOLK        SUNNY     75  35  23 S18G28    30.07F
ALBION         CLOUDY    76  35  22 SW18G24   30.08F
BLAIR          SUNNY     73  37  26 S20       30.14F
COLUMBUS       SUNNY     75  35  23 S17G24    30.11F
FREMONT        SUNNY     73  37  26 S16       30.13F
TEKAMAH        SUNNY     74  36  25 S17G26    30.11F
WAYNE          SUNNY     74  31  20 SW17G25   30.07F
$$

NEZ050>053-065>068-078-088>093-162200-
SOUTHEAST NEBRASKA

CITY           SKY/WX    TMP DP  RH WIND       PRES   REMARKS
LINCOLN        SUNNY     75  35  23 S21G28    30.15F
OMAHA EPPLEY   MOSUNNY   74  37  26 S10       30.15F
BEATRICE       SUNNY     73  39  29 S16G22    30.18F
FALLS CITY     SUNNY     71  37  28 SW14G23   30.21F
NEBRASKA CITY  SUNNY     72  39  29 SW14G22   30.19F
PLATTSMOUTH    SUNNY     73  37  27 S16       30.17F
$$

NEZ044-045-051>053-067-162200-
OMAHA AREA

CITY           SKY/WX    TMP DP  RH WIND       PRES   REMARKS
OMAHA EPPLEY   MOSUNNY   74  37  26 S10       30.15F
BLAIR          SUNNY     73  37  26 S20       30.14F
FREMONT        SUNNY     73  37  26 S16       30.13F
MILLARD        SUNNY     74  39  27 SW12G18   30.15F
OFFUTT AFB     SUNNY     73  36  26 S12G20    30.15F
PLATTSMOUTH    SUNNY     73  37  27 S16       30.17F
WAHOO          FAIR      75  34  22 S17G23    30.13F
$$



USA.gov is the U.S. government's official web portal to all federal, state and local government web resources and services.